World > North America > United States > North Carolina

Powells Point, North Carolina Regional Weather

Lat: 36.16N, Lon: 75.86W
Wx Zone: NCZ017Web Search

Helpful Tip: Type the letters wx in the search engine next time you need to find us.

Feedback


°F Click to change Powells Point hourly weather to Imperial units.Click to change Powells Point hourly weather to Metric units. °C
Powells Point Weather Map
UTC Time: 5/8/2021, 00:48
Your Time:

Powells Point, NC Regional Weather

Expires:202105080100;;760035
ASUS42 KMHX 080025
RWRMHX
WEATHER ROUNDUP FOR EASTERN NORTH CAROLINA
NATIONAL WEATHER SERVICE NEWPORT/MOREHEAD CITY NC
800 PM EDT FRI MAY 07 2021

NOTE: "FAIR" INDICATES FEW OR NO CLOUDS BELOW 12,000 FEET
WITH NO SIGNIFICANT WEATHER AND/OR OBSTRUCTIONS TO VISIBILITY


NCZ015>017-031-032-045>047-102-103-080100-
NORTH COAST
  
CITY           SKY/WX    TMP DP  RH WIND       PRES   REMARKS
EDENTON        MOCLDY    55  52  89 NW5       29.88R                  
ELIZABETH CITY LGT RAIN  54  46  74 NW9       29.86R                  
KITTY HAWK     CLOUDY    57  45  63 N6        29.83S                  
MANTEO         CLOUDY    58  45  60 N9        29.86R                  

$$


SKY/WX - Weather  TMP - Temperature  DP - Dew Point  RH - Relative Humidity
WIND - Wind Direction/Speed PRES - Barometric Pressure VSB - Visibility
WCI - Wind Chill Index E13G22 Wind - East Wind 13 mph/Gusts of 22 mph